Regional Weather Roundup
Issued by NWS Cleveland, OH

Home | Current Version | Previous Version | Graphics & Text | Print | Product List | Glossary On
Versions: 1 2 3 4 5 6 7 8 9 10 11 12 13 14 15 16 17 18 19 20 21 22 23 24 25 26 27 28 29 30 31 32 33 34 35 36 37 38 39 40 41 42 43 44 45 46 47 48 49 50
000
ASUS41 KCLE 231710
RWRCLE
OHIO REGIONAL WEATHER ROUNDUP
NATIONAL WEATHER SERVICE CLEVELAND, OH
1200 PM EST MON JAN 23 2017

NOTE: "FAIR" INDICATES FEW OR NO CLOUDS BELOW 12,000 FEET WITH NO
SIGNIFICANT WEATHER AND/OR OBSTRUCTIONS TO VISIBILITY.

OHZ001>008-015>018-024>027-034-035-043-044-231800-
   NORTHWEST OHIO

CITY           SKY/WX    TMP DP  RH WIND       PRES   REMARKS
DEFIANCE       LGT RAIN  41  39  93 NE9       29.65F
FINDLAY        LGT RAIN  42  38  85 NE14      29.60F
TOLEDO EXPRESS LGT RAIN  40  40 100 NE13      29.65F
TOLEDO EXEC    CLOUDY    39  38  96 NE10G18   29.66F FOG
LIMA           LGT RAIN  40  40 100 N14       29.60F
$$

OHZ009>014-019>023-028>033-038-089-231800-
   NORTHEAST OHIO

CITY           SKY/WX    TMP DP  RH WIND       PRES   REMARKS
CLE-HOPKINS    FOG       43  39  86 N10       29.63F VSB 1/2
CLE-LAKEFRONT  CLOUDY    38  37  97 NE14      29.61F FOG
CUY CO. ARPT   PTSUNNY   46  43  87 NE14      29.61F FOG
LORAIN-ELYRIA  CLOUDY    40  37  89 NE12      29.61F FOG
ASHTABULA      PTSUNNY   42  41  96 N8        29.62F
AKRON-CANTON   CLOUDY    50  42  74 E15       29.55F
WOOSTER        CLOUDY    48  44  86 NE13      29.56F
MANSFIELD      LGT RAIN  45  44  97 NE12      29.56F
YOUNGSTOWN     LGT RAIN  48  42  80 NE10      29.58F
$$

OHZ042-051>053-060>062-070>072-077>081-231800-
  SOUTHWEST OHIO

CITY           SKY/WX    TMP DP  RH WIND       PRES   REMARKS
CINC-COVINGTON CLOUDY    47  45  93 N17G25    29.54S FOG
CINC-LUNKEN    CLOUDY    47  46  97 N12       29.56R
HAMILTON       CLOUDY    48  46  93 N10G21    29.57S
DAYTON         CLOUDY    44  42  93 N14       29.57F
WRIGHT-PAT AFB CLOUDY    46  46 100 N10       29.55F FOG
DAYTON GENERAL LGT RAIN  45  44  97 N13       29.54S FOG
WILMINGTON     LGT RAIN  47  47 100 N16       29.51F FOG
$$

OHZ036-037-039>041-045>050-054>059-063>069-073>076-082>088-231800-
  CENTRAL AND SOUTHEAST OHIO

CITY           SKY/WX    TMP DP  RH WIND       PRES   REMARKS
COLUMBUS       LGT RAIN  51  47  86 NE10      29.51F
OSU AIRPORT    LGT RAIN  50  49  96 N12       29.52F FOG
BOLTON FIELD   NOT AVBL
RICKENBACK AFB DRIZZLE   49  48  95 NE9G17    29.50F
NEWARK         LGT RAIN  50  46  86 NE8       29.51S
MARION         RAIN      46  44  93 N14       29.57F FOG
LANCASTER      LGT RAIN  52  47  83 NE10G21   29.50F
ZANESVILLE     LGT RAIN  50  44  80 NE9       29.50F
NEW PHILLY     NOT AVBL
$$



USA.gov is the U.S. government's official web portal to all federal, state and local government web resources and services.